www.pogodaiklimat.ru

Архив погоды в Гамбурге (Германия)

Время
(UTC), дата
01 27.11
02 27.11
03 27.11
04 27.11
05 27.11
06 27.11
07 27.11
08 27.11
09 27.11
10 27.11
11 27.11
12 27.11
13 27.11
14 27.11
15 27.11
16 27.11
17 27.11
18 27.11
19 27.11
20 27.11
21 27.11
22 27.11
23 27.11
00 28.11
01 28.11
02 28.11
03 28.11
04 28.11
05 28.11
06 28.11
07 28.11
08 28.11
09 28.11
10 28.11
11 28.11
12 28.11
13 28.11
14 28.11
15 28.11
16 28.11
17 28.11
18 28.11
19 28.11
20 28.11
21 28.11
22 28.11
23 28.11
00 29.11
01 29.11
02 29.11
03 29.11
04 29.11
05 29.11
06 29.11
07 29.11
08 29.11
09 29.11
10 29.11
11 29.11
12 29.11
13 29.11
14 29.11
15 29.11
16 29.11
17 29.11
18 29.11
19 29.11
20 29.11
21 29.11
22 29.11
23 29.11
00 30.11
01 30.11
02 30.11
03 30.11
04 30.11
05 30.11
06 30.11
07 30.11
08 30.11
09 30.11
10 30.11
11 30.11
12 30.11
13 30.11
14 30.11
15 30.11
16 30.11
17 30.11
18 30.11
19 30.11
20 30.11
21 30.11
22 30.11
23 30.11
00 1.12
01 1.12
02 1.12
03 1.12
04 1.12
05 1.12
06 1.12
07 1.12
08 1.12
09 1.12
10 1.12
11 1.12
12 1.12
13 1.12
14 1.12
15 1.12
16 1.12
17 1.12
18 1.12
19 1.12
20 1.12
21 1.12
22 1.12
23 1.12
00 2.12
01 2.12
02 2.12
03 2.12
04 2.12
05 2.12
06 2.12
07 2.12
08 2.12
09 2.12
10 2.12
11 2.12
12 2.12
13 2.12
14 2.12
15 2.12
16 2.12
17 2.12
18 2.12
19 2.12
20 2.12
21 2.12
22 2.12
23 2.12
00 3.12
01 3.12
02 3.12
03 3.12
04 3.12
05 3.12
06 3.12
07 3.12
08 3.12
09 3.12
10 3.12
11 3.12
12 3.12
13 3.12
14 3.12
15 3.12
16 3.12
17 3.12
18 3.12
19 3.12
20 3.12
21 3.12
22 3.12
23 3.12
00 4.12
Ветер
(напр.,м/с)
Видим. Явления Облачность Т
(С)
Тd
(С)
f
(%)
Тe
(С)
Тes
(С)
Комфортность P
(гПа)
Po
(гПа)
Тmin
(С)
Tmax
(С)
R
(мм)
R24
(мм)
S
(см)
ЮВ 6 20 км слаб. дождь 10/9 300 м
[Frnb]
+3.0 +1.4 89 -3 -3 по сезону 987.4 985.6
ЮВ 6 25 км в посл. час дождь 10/10 360 м
[Sc]
+3.1 +1.4 89 -3 -3 тепло 987.3 985.5
ЮВ 5 25 км {дождь} 10/10 270 м
[Sc]
+3.0 +1.4 89 -2 -2 по сезону 987.3 985.5 0.0
В 5 15 км в посл. час дождь 10/10 270 м
[Sc]
+2.8 +1.3 90 -3 -3 по сезону 987.4 985.6
ЮВ 5 8000 м слаб. дождь 10/9 240 м
[Frnb]
+2.6 +1.3 91 -3 -3 тепло 987.7 985.9
В 4 10 км слаб. дождь 10/9 100 м
[Frnb]
+2.2 +1.3 94 -3 -3 прохладно 988.0 986.2 +2.1 +4.1 1
В 4 12 км в посл. час дождь 10/9 180 м
[Sc]
+2.4 +1.4 93 -3 -3 по сезону 988.6 986.8
В 4 8000 м слаб. морось 10/10 180 м
[St]
+2.6 +1.6 93 -2 -2 тепло 989.1 987.3
В 4 9000 м слаб. морось {дождь} 10/10 100 м
[St]
+2.8 +1.7 92 -2 -2 прохладно 989.5 987.7 0.0
В 4 10 км слаб. морось 10/10 210 м
[St]
+3.1 +1.8 91 -2 -2 по сезону 990.0 988.2
В 4 12 км слаб. морось 10/10 240 м
[St]
+3.2 +1.7 90 -2 -2 тепло 990.1 988.3
В 4 9000 м слаб. дождь {морось} 10/10 240 м
[Frnb]
+3.0 +1.7 91 -2 -2 прохладно 990.4 988.6 0.2
В 4 8000 м слаб. дождь 10/9 210 м
[Frnb]
+2.1 +1.2 94 -3 -3 по сезону 990.7 988.8
В 2 8000 м слаб. дождь со снегом 10/9 150 м
[Frnb]
+1.5 +0.9 96 -2 -2 по сезону 991.1 989.2
В 2 6000 м слаб. дождь со снегом 10/9 120 м
[Frnb]
+1.2 +0.8 97 -2 -2 прохладно 991.4 989.5 2
СВ 1 8000 м слаб. дождь {снег} 10/9 120 м
[Frnb]
+1.6 +1.1 96 -0 -0 по сезону 991.9 990.0
С 1 8000 м слаб. дождь 10/9 240 м
[Frnb]
+1.9 +1.4 96 0 0 тепло 992.2 990.3
СВ 1 6000 м слаб. дождь {снег} 10/9 100 м
[Frnb]
+1.9 +1.5 97 -0 -0 по сезону 992.5 990.6 +1.1 +3.3 4
СЗ 1 4700 м слаб. дождь 10/9 90 м
[Sc]
+1.9 +1.7 99 -0 -0 по сезону 992.9 991.0
СЗ 1 4000 м слаб. дождь 10/9 150 м
[Sc]
+2.1 +1.8 98 0 0 тепло 993.1 991.2
СЗ 2 5000 м слаб. дождь 10/9 60 м
[Sc]
+1.9 +1.6 98 -2 -2 по сезону 993.2 991.3 3
СЗ 2 5000 м слаб. дождь 10/9 60 м
[Frnb]
+1.5 +1.2 98 -2 -2 по сезону 993.5 991.6
СЗ 1 6000 м слаб. дождь со снегом 10/9 90 м
[Sc]
+1.3 +0.8 96 -1 -1 тепло 993.7 991.8
СЗ 1 6000 м слаб. дождь со снегом 10/9 50 м
[Frnb]
+1.0 +0.7 98 -1 -1 по сезону 993.7 991.8 5
З 1 5000 м слаб. дождь со снегом 10/9 90 м
[Frnb]
+1.1 +0.7 97 -1 -1 по сезону 993.7 991.8
З 2 6000 м слаб. дождь со снегом 10/9 60 м
[Frnb]
+1.1 +0.7 97 -3 -3 тепло 994.0 992.1
ЮЗ 2 6000 м дождь {снег} 10/9 60 м
[Frnb]
+1.5 +1.1 97 -2 -2 по сезону 993.9 992.0 0.7
З 2 6000 м слаб. морось {дождь} 10/10 60 м
[Frnb]
+1.6 +1.2 97 -2 -2 по сезону 993.9 992.0
ЮЗ 3 5000 м слаб. морось 10/10 90 м
[Frnb]
+1.7 +1.2 96 -3 -3 тепло 994.0 992.1
ЮЗ 2 4800 м слаб. морось {снег, дождь} 10/9 50 м
[Frnb]
+1.7 +1.2 96 -2 -2 по сезону 994.4 992.5 +0.9 +2.1 6
З 3 5000 м слаб. дождь со снегом {морось} 10/9 90 м
[Frnb]
+2.0 +1.6 97 -2 -2 по сезону 994.4 992.5
З 2 6000 м слаб. дождь {снег} 10/9 90 м
[Frnb]
+2.5 +2.1 97 -1 -1 тепло 994.9 993.0
З 3 8000 м в посл. час дождь {снег} 9/9 50 м
[St]
+3.0 +2.4 96 -1 -1 по сезону 995.4 993.5 0.3
З 3 10 км слаб. дождь 9/9 150 м
[Cu Sc]
+3.1 +2.0 92 -1 -1 по сезону 995.4 993.5
З 4 12 км слаб. дождь 10/9 240 м
[Frnb]
+3.5 +2.5 93 -1 -1 тепло 995.1 993.3
СЗ 2 15 км в посл. час дождь {снег} 9/9 240 м
[Cu Sc]
+3.9 +2.1 88 +1 +1 по сезону 995.2 993.4 0.0
СЗ 3 20 км 9/9 400 м
[Cu Sc]
+3.4 +1.6 88 -1 -1 по сезону 995.5 993.6
СЗ 4 20 км 9/9 240 м
[St]
+3.0 +1.8 92 -2 -2 тепло 995.7 993.8
З 2 12 км 3/3 240 м
[Cu Sc]
+1.7 +0.8 94 -2 -2 по сезону 996.0 994.1
Ю 1 8000 м 3/3 750 м
[Sc]
+0.5 +0.2 98 -2 -2 по сезону 996.3 994.4
СЗ 1 8000 м 4/4 480 м
[Sc]
-0.8 -1.0 99 -3 -3 тепло 996.6 994.7
СВ 2 7000 м туман на расстоянии 3/3 300 м
[Sc]
-0.5 -0.8 98 -4 -4 прохладно 997.0 995.1 -1.2 +4.1 0.3
СЗ 1 2500 м дымка 9/9 30 м
[St]
+0.3 0.0 98 -2 -2 по сезону 997.5 995.6
С 1 3200 м дымка 10/10 60 м
[St]
+0.3 +0.1 99 -2 -2 тепло 997.7 995.8
СЗ 2 400 м туман ?/? +0.2 +0.1 99 -4 -4 прохладно 997.8 995.9
З 1-2
{3}
300 м туман ?/? -0.6 -0.6 100 -3 -3 по сезону 998.1 996.2
В 2-2
{2}
500 м переохл. туман ?/? -0.3 -0.3 100 -4 -4 тепло 998.6 996.7
СВ 1 700 м переохл. туман ?/? -0.5 -0.5 100 -3 -3 по сезону 998.7 996.8
З 1-2
{3}
300 м переохл. туман ?/? -0.9 -0.9 100 -3 -3 по сезону 999.1 997.2
С 2-3
{4}
500 м переохл. туман ?/? -1.0 -1.0 100 -5 -5 по сезону 999.7 997.8
СЗ 1 500 м переохл. туман ?/? -1.1 -1.2 99 -3 -3 по сезону 1000.1 998.2
СЗ 2 2800 м в посл. час туман 10/10 30 м
[St]
-0.8 -0.9 99 -5 -5 по сезону 1000.5 998.6
СЗ 3 4500 м в посл. час снег 9/9 60 м
[Frnb]
-0.5 -0.6 99 -6 -6 по сезону 1001.0 999.1
СЗ 3 3500 м дымка {снег, туман} 10/10 <50 м
[St]
-0.5 -0.7 99 -6 -6 прохладно 1001.6 999.7 -1.2 +0.5 0.4 0
СЗ 2 4500 м в посл. час зёрна 10/10 60 м
[St]
-0.2 -0.3 99 -4 -4 по сезону 1002.5 1000.6
СЗ 2 2500 м в посл. час морось 10/10 30 м
[St]
+0.1 -0.1 99 -4 -4 тепло 1003.3 1001.4
СЗ 3 2000 м слаб. морось {снег} 10/10 <50 м
[St]
+0.5 +0.3 99 -4 -4 прохладно 1004.0 1002.1 0.0
СЗ 4 6000 м в посл. час морось 9/9 90 м
[Sc]
+1.8 +1.5 98 -3 -3 по сезону 1004.5 1002.6
С 3 20 км в посл. час дождь 9/9 180 м
[St]
+3.0 +2.2 94 -1 -1 тепло 1004.9 1003.0
СЗ 3 30 км в посл. час ливневой дождь {снег} 9/9 210 м
[Cu Sc]
+3.1 +2.2 94 -1 -1 по сезону 1005.1 1003.2 0.1
СЗ 3 30 км 5/4 210 м
[Cu Sc Ac trans]
+4.0 +2.7 91 0 +1 по сезону 1005.4 1003.5
СЗ 3 30 км 8/8 300 м
[Cu Sc]
+3.9 +2.6 91 0 0 тепло 1006.0 1004.1
СЗ 5 9000 м слаб. ливневой дождь 9/9 400 м
[Cb calv]
+2.8 +1.3 90 -3 -3 прохладно 1007.1 1005.2 0.1
СЗ 3 30 км в посл. час ливневой дождь 9/9 180 м
[Cb calv]
+2.8 +2.0 94 -1 -1 по сезону 1007.6 1005.7
СЗ 2 30 км 1/1 1020 м
[Sc]
+1.2 +0.4 94 -2 -2 тепло 1007.9 1006.0
З 2 30 км {ливн. дождь} 1/1 200 м
[Sc]
+0.4 -0.2 96 -3 -3 по сезону 1008.0 1006.1 -0.5 +4.2 0.4
З 3 20 км 9/9 840 м
[Sc]
+1.0 +0.5 96 -4 -4 по сезону 1008.3 1006.4
З 1 18 км 9/9 800 м
[Sc]
+1.3 +0.8 96 -1 -1 тепло 1007.9 1006.0
ЮЗ 2 16 км 9/3 900 м
[Sc Ac As]
+0.9 +0.4 96 -3 -3 по сезону 1007.6 1005.7
ЮЗ 3 30 км 10/4 960 м
[Sc As trans]
+1.6 -0.6 85 -3 -3 по сезону 1007.2 1005.3
ЮЗ 3 40 км 10/6 1500 м
[Sc As op]
+1.2 -0.1 91 -3 -3 тепло 1006.3 1004.4
ЮЗ 5 20 км слаб. дождь 10/9 1000 м
[Sc]
+1.8 +0.7 92 -4 -4 прохладно 1005.1 1003.2 0.0
ЮЗ 6 18 км слаб. дождь 10/9 630 м
[Sc]
+2.4 +1.3 92 -4 -4 по сезону 1003.8 1001.9
ЮЗ 6 15 км слаб. дождь 10/9 270 м
[Sc]
+3.2 +2.0 92 -3 -3 тепло 1002.8 1000.9
ЮЗ 7 20 км в посл. час дождь 10/9 270 м
[Sc]
+3.1 +1.9 92 -3 -3 прохладно 1000.6 998.7 0.4
ЮЗ 9 7000 м дождь 10/9 330 м
[Frnb]
+3.1 +2.1 93 -4 -4 по сезону 998.5 996.6
ЮЗ 10 8000 м слаб. дождь 10/9 210 м
[Frnb]
+3.4 +2.4 93 -4 -4 по сезону 996.4 994.5
ЮЗ 10 8000 м слаб. дождь 10/10 100 м
[Frnb]
+4.2 +3.3 94 -3 -3 прохладно 995.1 993.3 +0.2 +4.3 1
З 7 7000 м слаб. дождь 10/10 150 м
[Frnb]
+5.2 +4.5 95 -0 -0 по сезону 995.1 993.3
З 6 30 км в посл. час дождь 10/9 240 м
[Cu Sc]
+6.4 +5.1 91 +2 +2 тепло 994.9 993.1
СЗ 7 30 км слаб. ливневой дождь 9/9 300 м
[Cu Sc]
+6.4 +3.5 82 +1 +1 по сезону 995.3 993.5 1
З 8 30 км в посл. час ливневой дождь 10/8 750 м
[Cu Sc Ac As]
+6.9 +3.1 77 +2 +2 тепло 995.2 993.4
СЗ 11 25 км 9/9 800 м
[Cu Sc]
+7.1 +1.9 69 +2 +2 тепло 995.7 993.9
СЗ 10 30 км {ливн. дождь, дождь} 9/9 750 м
[Cu Sc]
+7.2 +0.1 61 +2 +2 по сезону 995.7 993.9 0.0
СЗ 12 30 км в посл. час ливневой дождь 9/9 480 м
[Cb cap]
+6.9 +1.0 66 +1 +1 по сезону 996.1 994.3
СЗ 10 30 км 9/4 1500 м
[Sc Ac trans Ci fib]
+6.7 +0.3 64 +1 +1 тепло 997.1 995.3
СЗ 9 30 км осадки на расстоянии {ливн. дождь} 9/9 750 м
[Cb cap]
+6.8 +0.3 63 +2 +2 по сезону 998.3 996.5 0.0
СЗ 9 30 км в посл. час ливневой дождь 9/9 1080 м
[Sc]
+6.2 +0.6 67 +1 +1 по сезону 999.5 997.7
СЗ 7 30 км 8/8 1500 м
[Sc]
+5.6 +1.1 73 +1 +1 тепло 1000.2 998.4
СЗ 5 35 км {ливн. дождь} 1/1 1500 м
[Sc]
+5.0 +1.1 76 +1 +1 по сезону 1001.2 999.3 +4.2 +7.4 1
З 3 30 км 4/4 1500 м
[Sc]
+4.2 +1.2 81 +1 +1 по сезону 1002.2 1000.3
З 1 30 км 3/3 1500 м
[Sc]
+3.3 +1.0 85 +2 +2 тепло 1002.4 1000.5
ЮЗ 2 30 км 9/9 1020 м
[Sc]
+3.2 +1.4 88 0 0 по сезону 1002.4 1000.5
ЮЗ 2 25 км 8/8 1110 м
[Sc]
+3.8 +1.7 86 +1 +1 тепло 1002.5 1000.6
ЮЗ 3 25 км 9/4 1200 м
[Sc Ac As]
+3.3 +1.4 87 -1 -1 тепло 1001.9 1000.0
ЮЗ 3 25 км 10/4 1000 м
[Sc As op]
+3.7 +2.5 92 -0 -0 по сезону 1001.0 999.1
Ю 3 15 км слаб. дождь 10/5 1350 м
[Sc As op]
+4.8 +3.6 92 +1 +1 тепло 999.1 997.3
ЮВ 4 10 км слаб. дождь 10/4 120 м
[Frnb As op]
+4.4 +3.9 97 -0 -0 тепло 997.7 995.9
ЮВ 5 6000 м дождь 10/8 120 м
[Frnb As op]
+4.5 +4.2 98 -1 -1 по сезону 996.1 994.3 2
ЮВ 7 12 км слаб. дождь 10/9 150 м
[Frnb]
+5.0 +4.6 97 -1 -1 по сезону 994.0 992.2
ЮВ 7 6000 м дождь 10/9 120 м
[Frnb]
+5.4 +5.1 98 -0 -0 тепло 992.0 990.2
Ю 6 4500 м дождь 10/9 100 м
[Frnb]
+6.0 +5.8 99 +1 +1 по сезону 990.1 988.3 +2.3 +6.0 6
ЮЗ 9 8000 м дождь 10/9 240 м
[Frnb]
+8.8 +8.0 95 +4 +4 тепло 988.3 986.5
ЮЗ 9 7000 м дождь 10/9 240 м
[Frnb]
+8.7 +7.7 93 +4 +4 тепло 986.9 985.1
ЮЗ 11 10 км слаб. морось {дождь} 10/9 200 м
[Frnb]
+8.5 +7.2 92 +3 +3 по сезону 985.9 984.1 0.3
ЮЗ 10 20 км слаб. дождь {морось} 10/10 270 м
[Sc]
+8.3 +6.9 91 +3 +3 тепло 985.0 983.2
ЮЗ 10 25 км дождь 10/10 300 м
[Sc]
+8.6 +7.0 90 +3 +3 тепло 983.5 981.7
ЮЗ 10 25 км дождь {морось} 10/9 300 м
[Sc]
+8.7 +7.1 90 +4 +4 по сезону 981.7 979.9 0.1
ЮЗ 10 25 км дождь 9/9 480 м
[Sc]
+9.0 +6.6 85 +4 +4 тепло 980.6 978.8
ЮЗ 12 35 км слаб. ливневой дождь 9/9 600 м
[Sc]
+8.9 +5.7 80 +4 +4 тепло 979.3 977.5
ЮЗ 15 30 км в посл. час ливневой дождь 9/9 720 м
[Cb cap]
+8.2 +4.4 77 +2 +2 по сезону 979.1 977.3 2
ЮЗ 11 35 км в посл. час ливневой дождь 9/9 570 м
[Cu Sc]
+7.1 +3.7 79 +1 +1 по сезону 979.0 977.2
ЮЗ 10 25 км слаб. ливневой дождь 10/9 500 м
[Cb cap]
+6.7 +3.2 78 +1 +1 тепло 978.5 976.7
ЮЗ 13 25 км слаб. дождь {ливн. дождь} 10/9 300 м
[Sc]
+6.2 +3.0 80 -0 -0 по сезону 978.0 976.2 +6.0 +9.4 2
З 12 15 км дождь 10/9 450 м
[Sc]
+5.8 +3.1 83 -1 -1 по сезону 978.2 976.4
З 13 15 км дождь 10/9 450 м
[Sc]
+4.4 +2.1 85 -3 -3 по сезону 979.6 977.8
З 14 9000 м слаб. дождь со снегом 10/9 180 м
[Frnb]
+2.1 +0.6 90 -7 -7 холодно 982.2 980.4 0.4
З 13 10 км слаб. дождь со снегом 10/9 180 м
[Frnb]
+2.0 +0.6 90 -6 -6 по сезону 984.3 982.5
З 12 25 км в посл. час дождь со снегом 10/9 480 м
[Sc]
+2.6 -0.8 78 -5 -5 по сезону 986.2 984.4
З 10 35 км {снег, дождь} 10/9 600 м
[Cu Sc]
+3.0 -2.0 70 -4 -4 прохладно 987.5 985.7 0.9
З 9 40 км 9/1 660 м
[Cu hum Ac trans]
+2.9 -1.8 71 -4 -4 по сезону 988.8 987.0
З 9 35 км 9/5 700 м
[Cu Sc Ac trans]
+2.4 -1.8 74 -4 -4 по сезону 990.2 988.4
З 7 40 км 8/5 630 м
[Cu Sc Ac trans]
+2.0 -2.0 75 -4 -4 прохладно 991.4 989.5
З 6 45 км 6/3 500 м
[Cu Sc Ac trans Ci fib]
+1.4 -1.7 80 -5 -5 по сезону 992.1 990.2
З 6 45 км 4/1 500 м
[Cu hum Ci fib]
+1.1 -2.2 79 -5 -5 по сезону 993.1 991.2
З 7 45 км 1/1 1000 м
[Sc]
+1.3 -3.2 72 -5 -5 прохладно 993.8 991.9 +0.9 +6.3 0.9
З 4 45 км 1/1 1500 м
[Sc]
+0.8 -2.9 76 -4 -4 по сезону 995.0 993.1
З 4 45 км 1/1 2000 м
[Sc]
+0.6 -3.0 77 -5 -5 по сезону 996.0 994.1
З 4 45 км 1/1 1500 м
[Sc]
+1.2 -3.3 72 -4 -3 прохладно 997.1 995.2
СЗ 5 50 км 1/1 1500 м
[Sc]
+1.9 -3.5 67 -3 -3 по сезону 997.8 995.9
СЗ 5 50 км 1/1 1500 м
[Sc]
+2.4 -3.4 66 -3 -2 по сезону 998.5 996.6
СЗ 6 50 км 9/0
[Ac As Ci sp]
+2.0 -3.8 65 -4 -3 холодно 999.3 997.4
СЗ 4 50 км 9/1 600 м
[Cu hum Ac trans]
+1.9 -3.4 68 -3 -3 по сезону 999.9 998.0
СЗ 3 50 км 9/1 600 м
[Cu hum Ac As]
+1.9 -2.8 71 -2 -2 по сезону 1000.9 999.0
СЗ 4 50 км 9/0
[Ac As]
+1.8 -2.6 73 -3 -3 прохладно 1001.7 999.8
З 3 50 км 5/0
[Ac As]
+0.9 -2.8 76 -3 -3 по сезону 1002.7 1000.8
З 2-3
{3}
40 км ясно -0.7 -2.9 85 -4 -4 по сезону 1003.5 1001.6
З 3 40 км ясно -0.4 -2.7 84 -5 -5 холодно 1004.1 1002.2 -1.2 +2.7
ЮЗ 2-3
{4}
40 км ясно -1.2 -3.2 86 -5 -5 по сезону 1004.1 1002.2
З 3-5
{5}
35 км ясно -0.5 -2.0 90 -5 -5 по сезону 1004.7 1002.8
ЮЗ 4 35 км 3/0
[Ac trans]
-0.2 -2.0 88 -6 -6 холодно 1004.3 1002.4
З 4 35 км 6/0
[Ac und]
+0.5 -1.8 85 -5 -5 по сезону 1004.7 1002.8
З 4 35 км в посл. час ливневой снег 5/4 1500 м
[Sc Ac trans]
+0.6 -1.8 84 -5 -5 по сезону 1005.1 1003.2
З 4 40 км {ливн. снег} 3/3 600 м
[Sc]
+0.8 -0.9 88 -5 -5 прохладно 1005.1 1003.2 0.0
ЮЗ 4 35 км слаб. ливневой снег 6/6 1110 м
[Sc]
+0.3 -0.8 92 -5 -5 по сезону 1005.3 1003.4
ЮЗ 5 40 км в посл. час ливневой снег 6/6 1500 м
[Sc]
+0.9 -0.7 89 -5 -5 по сезону 1005.5 1003.6
З 5 40 км {ливн. снег} 6/6 1020 м
[Sc]
+1.1 -0.4 90 -5 -5 прохладно 1005.8 1003.9 0.0
ЮЗ 3 40 км в посл. час ливневой снег 6/6 1140 м
[Sc]
+1.0 -0.1 92 -4 -4 по сезону 1005.9 1004.0
З 3 40 км 9/9 480 м
[Sc]
+0.9 -0.8 88 -4 -4 тепло 1005.7 1003.8
ЮЗ 3 30 км в посл. час ливневой снег 9/6 200 м
[Cu Sc Ac As]
+0.9 -0.6 90 -4 -4 прохладно 1005.7 1003.8 -1.9 +1.4 0.0 0
ЮЗ 5 30 км в посл. час ливневой снег 9/8 240 м
[Cu Sc Ac trans]
+1.0 -0.6 89 -5 -5 по сезону 1005.6 1003.7
ЮЗ 4 28 км 6/1 270 м
[St Ac trans Ci fib]
+0.3 -1.0 91 -5 -5 по сезону 1005.7 1003.8
ЮЗ 7 28 км {ливн. снег} 5/1 300 м
[Sc Ac As Ci fib]
+1.2 -0.9 86 -6 -5 холодно 1005.7 1003.8 0.0
ЮЗ 8 22 км 9/1 330 м
[Sc Ac As Ci fib]
+1.4 -0.5 87 -6 -6 по сезону 1005.8 1003.9
ЮЗ 8 15 км 10/10 270 м
[St]
+1.7 0.0 88 -5 -5 по сезону 1005.1 1003.2
ЮЗ 8 12 км дождь {ливн. дождь, снег} 10/9 270 м
[Frnb]
+2.0 +0.4 89 -5 -5 холодно 1004.3 1002.4 0.0
ЮЗ 8 12 км слаб. дождь 10/9 300 м
[Frnb]
+2.4 +0.7 89 -4 -4 по сезону 1003.5 1001.6
ЮЗ 9 15 км в посл. час дождь 10/10 400 м
[Cu Sc]
+2.7 +0.3 84 -4 -4 по сезону 1002.8 1000.9
ЮЗ 7 8000 м слаб. дождь 10/9 210 м
[Frnb]
+2.4 +0.8 89 -4 -4 холодно 1002.0 1000.1 0.2
Ю 9 6000 м дождь со снегом 10/9 180 м
[Frnb]
+2.1 +1.0 92 -5 -5 по сезону 1001.4 999.5
ЮЗ 9 5000 м слаб. морось {снег, дождь} 10/9 210 м
[Frnb]
+2.2 +1.3 94 -5 -5 по сезону 1000.7 998.8
ЮЗ 8 8000 м дождь {снег} 10/9 100 м
[Frnb]
+2.3 +1.4 94 -5 -5 холодно 1000.3 998.4 +0.2 +2.9 1
ЮЗ 10 8000 м слаб. морось {дождь} 10/9 180 м
[Frnb]
+2.9 +2.0 94 -5 -5 по сезону 999.8 997.9
ЮЗ 7 4000 м дождь {морось} 10/9 150 м
[Frnb]
+3.3 +2.5 94 -3 -3 тепло 999.5 997.6
ЮЗ 7 7000 м слаб. морось {дождь, снег} 10/9 180 м
[Frnb]
+3.7 +2.9 95 -2 -2 по сезону 999.4 997.5 0.1
ЮЗ 7 5000 м дождь {морось} 10/9 150 м
[Frnb]
+3.8 +3.0 95 -2 -2 по сезону 999.5 997.6
ЮЗ 5 4500 м дождь {морось} 10/9 150 м
[Frnb]
+4.0 +3.3 95 -1 -1 тепло 999.6 997.7
ЮЗ 4 6000 м дождь {снег} 10/9 100 м
[Frnb]
+4.2 +3.4 95 -0 -0 по сезону 999.6 997.7 0.5
Местоположение метеостанции Гамбург (Германия): широта 53.63 долгота 10.00 высота над уровнем моря 16 м.
В архиве по умолчанию представлена погода в Гамбурге за последнюю неделю. Архивные данные за месяц целиком и за предыдущие месяцы, начиная с января 2011 года, Вы можете получить, выбрав интересующий диапазон дат из раскрывающегося списка и нажав кнопку "Найти!".
*Определитесь, кто Вы:
Внимание! Время в таблицах - всемирное. Для получения местного времени необходимо прибавить поправку, которая равна 1 ч.
Смотрите также архив погоды в соседних городах и на ближайших метеорологических станциях:
Партнеры нашего сайта:      
Пояснения к столбцам:
  • Ветер - указаны скорость ветра в м/с - средняя за 10 мин, порывы в срок и между сроками (в фигурных скобках) и направление, откуда дует ветер: С - северный,
  • СВ - северо-восточный, В - восточный, ЮВ - юго-восточный, Ю - южный, ЮЗ - юго-западный, З - западный, СЗ - северо-западный.
  • Видимость - горизонтальная дальность видимости в метрах или километрах. При видимости от 1 до 10 км при отсутствии осадков обычно наблюдается дымка, при ухудшении видимости до 1 км и менее - туман. В сухую погоду видимость может ухудшаться дымом, пылью или мглою.
  • Явления - указаны атмосферные явления, наблюдавшиеся в срок или в последний час перед сроком; фигурными скобками обозначены явления, наблюдавшиеся между сроками (за 1-3 часа до срока); квадратными скобками обозначены град или гололедные отложения с указанием их диаметра в мм.
  • Облачность - указаны через наклонную черту общая и нижняя облачность в баллах и высота нижней границы облаков в метрах; квадратными скобками обозначены формы облаков: Ci - перистые, Cs - перисто-слоистые, Cc - перисто-кучевые, Ac - высококучевые, As - высокослоистые, Sc - слоисто-кучевые, Ns - слоисто-дождевые, Cu - кучевые, Cb - кучево-дождевые. Подробнее классификацию облаков см. в Атласе облаков (PDF).
  • T - Температура воздуха - температура, измеренная на высоте 2 м над землей.
  • Td - Температура точки росы - температура, при понижении до которой содержащийся в воздухе водяной пар достигнет насыщения.
  • f - Относительная влажность воздуха - влажноcть воздуха, измеренная на высоте 2 м над землей.
  • Te - Эффективная температура - температура, которую ощущает одетый по сезону человек в тени. Характеристика душности погоды. При расчете учитывается влияние влажности воздуха и скорости ветра на теплоощущения человека.
  • Tes - Эффективная температура на солнце - температура, которую ощущает человек, с поправкой на солнечный нагрев. Характеристика знойности погоды. Зависит от высоты солнца над горизонтом, облачности и скорости ветра. Ночью, в пасмурную погоду, а также при ветре 12 м/с и более поправка равна нулю.
  • P - Атмосферное давление - приведенное к уровню моря атмосферное давление.
  • Po - Атмосферное давление - измеренное на уровне метеостанции атмосферное давление.
  • Tmin - Минимальная температура - минимум температуры воздуха на высоте 2 м над землей.
  • Tmax - Максимальная температура - максимум температуры воздуха на высоте 2 м над землей.
  • R - Количество осадков - Количество выпавших осадков за период времени, мм. При наведении курсора мыши на число - период времени, за который выпало указанное количество осадков.
  • R24 - Количество осадков - Количество выпавших осадков за 24 часа, мм.
  • S - Снежный покров - Высота снежного покрова, см. При наведении курсора мыши на число - состояние снежного покрова и степень покрытия местности в баллах.